Change the Weather History Date:

Monday, August 5, 2013

  Actual Average Record
Temperature  
Mean Temperature 74 °F 78 °F  
Max Temperature 82 °F 87 °F 101 °F (1930)
Min Temperature 65 °F 69 °F 52 °F (1929)
Degree Days  
Heating Degree Days 0 0  
Month to date heating degree days 0 0  
Since 1 June heating degree days 0 6  
Since 1 July heating degree days 0 0  
Cooling Degree Days 9 13  
Month to date cooling degree days 62 65  
Year to date cooling degree days 911 950  
Since 1 June cooling degree days 761 791  
Growing Degree Days 23 (Base 50)    
Moisture  
Dew Point 63 °F    
Average Humidity 71    
Maximum Humidity 87    
Minimum Humidity 54    
Precipitation  
Precipitation T in 0.14 in 1.71 in (1925)
Month to date precipitation T 0.68  
Year to date precipitation 32.74 25.59  
Sea Level Pressure  
Sea Level Pressure 30.03 in    
Wind  
Wind Speed 6 mph (SSE)    
Max Wind Speed 15 mph    
Max Gust Speed -    
Visibility 10 miles    
Events      
T = Trace of Precipitation, MM = Missing Value Source: NWS Daily Summary

Daily Weather History Graph

Daily Weather History Graph

Search for Another Location

Airport or City:

Trip Planner

Search our weather history database for the weather conditions in past years. The results will help you decide how hot, cold, wet, or windy it might be!

Date:

Astronomy

Aug. 05, 2013 Rise Set
Actual Time 6:30 AM EDT 8:20 PM EDT
Civil Twilight 6:02 AM EDT 8:48 PM EDT
Nautical Twilight 5:28 AM EDT 9:22 PM EDT
Astronomical Twilight 4:52 AM EDT 9:58 PM EDT
Moon 5:23 AM EDT (8/5) 7:21 PM EDT (8/5)
Length of Visible Light 14h 46m
Length of Day
13h 50m
Waning Crescent, 1% of the Moon is Illuminated
Aug 5
Waning Crescent
Aug 6
New
Aug 14
First Quarter
Aug 20
Full
Aug 28
Last Quarter

Hourly Weather History & Observations

Time (EDT) Temp. Heat Index Dew Point Humidity Pressure Visibility Wind Dir Wind Speed Gust Speed Precip Events Conditions
12:54 AM 72.0 °F - 63.0 °F 73% 30.03 in 10.0 mi North 3.5 mph - N/A   Scattered Clouds
1:54 AM 70.0 °F - 63.0 °F 78% 30.04 in 10.0 mi North 3.5 mph - N/A   Mostly Cloudy
2:54 AM 70.0 °F - 62.1 °F 76% 30.04 in 10.0 mi Calm Calm - N/A   Mostly Cloudy
3:54 AM 68.0 °F - 60.1 °F 76% 30.03 in 10.0 mi North 3.5 mph - N/A   Mostly Cloudy
4:54 AM 66.9 °F - 59.0 °F 76% 30.03 in 10.0 mi North 4.6 mph - N/A   Mostly Cloudy
5:54 AM 64.9 °F - 59.0 °F 81% 30.03 in 10.0 mi North 3.5 mph - N/A   Mostly Cloudy
6:54 AM 64.9 °F - 60.1 °F 84% 30.05 in 10.0 mi Calm Calm - N/A   Mostly Cloudy
7:54 AM 66.0 °F - 61.0 °F 84% 30.07 in 10.0 mi NNE 3.5 mph - N/A   Mostly Cloudy
8:54 AM 70.0 °F - 63.0 °F 78% 30.08 in 10.0 mi ENE 5.8 mph - N/A   Mostly Cloudy
9:54 AM 73.0 °F - 63.0 °F 71% 30.08 in 10.0 mi ENE 4.6 mph - N/A   Overcast
10:54 AM 75.9 °F - 63.0 °F 64% 30.08 in 10.0 mi South 3.5 mph - N/A   Mostly Cloudy
11:54 AM 75.9 °F - 63.0 °F 64% 30.07 in 10.0 mi SSE 3.5 mph - N/A   Mostly Cloudy
12:54 PM 75.9 °F - 61.0 °F 60% 30.06 in 10.0 mi SE 9.2 mph - N/A   Mostly Cloudy
1:54 PM 79.0 °F - 64.0 °F 60% 30.04 in 10.0 mi SSE 12.7 mph - 0.00 in   Mostly Cloudy
2:54 PM 81.0 °F 82.2 °F 63.0 °F 54% 30.02 in 10.0 mi SSW 10.4 mph - N/A   Mostly Cloudy
3:54 PM 81.0 °F 81.9 °F 62.1 °F 52% 30.00 in 10.0 mi SSW 9.2 mph - N/A   Mostly Cloudy
4:54 PM 81.0 °F 82.5 °F 64.0 °F 56% 30.00 in 10.0 mi SSW 10.4 mph - N/A   Mostly Cloudy
5:54 PM 80.1 °F 81.5 °F 63.0 °F 56% 29.99 in 10.0 mi South 8.1 mph - N/A   Mostly Cloudy
6:54 PM 79.0 °F - 64.0 °F 60% 29.99 in 10.0 mi SSW 8.1 mph - N/A   Scattered Clouds
7:54 PM 77.0 °F - 64.0 °F 64% 30.00 in 10.0 mi South 5.8 mph - N/A   Mostly Cloudy
8:54 PM 73.9 °F - 64.0 °F 71% 30.00 in 10.0 mi SSE 5.8 mph - N/A   Mostly Cloudy
9:54 PM 75.0 °F - 64.0 °F 69% 30.01 in 10.0 mi SSE 9.2 mph - N/A   Mostly Cloudy
10:54 PM 75.0 °F - 63.0 °F 66% 30.00 in 10.0 mi SSE 9.2 mph - N/A   Overcast
11:54 PM 73.9 °F - 64.9 °F 73% 30.00 in 10.0 mi South 8.1 mph - N/A   Mostly Cloudy